This demonstration page uses our WeatherBlox Daily Observations layout. Learn more.

Left ArrowRight Arrow

34.16533, -84.80231

Hourly Observations for February 6, 2015

Temp ( °F °C ) Dew Point ( °F °C ) Humidity (%) Winds ( mph kmh ) Pressure ( in mb ) Visibility ( mi km ) Precip ( " mm )
12:53 am 00:53 Clear 28 -2.2 7 -13.9 41 41 Calm 30.35 1028 10 16 0.00 0.00
1:53 am 01:53 Clear 26 -3.3 9 -12.8 48 48 Calm 30.36 1028 10 16 0.00 0.00
2:53 am 02:53 Clear 23 -5 10 -12.2 57 57 Calm 30.36 1028 10 16 0.00 0.00
3:53 am 03:53 Clear 24 -4.4 8 -13.3 50 50 Calm 30.36 1028 10 16 0.00 0.00
4:53 am 04:53 Clear 21 -6.1 10 -12.2 62 62 Calm 30.37 1029 10 16 0.00 0.00
5:53 am 05:53 Clear 21 -6.1 10 -12.2 62 62 Calm 30.39 1029 10 16 0.00 0.00
6:53 am 06:53 Clear 20 -6.7 11 -11.7 68 68 Calm 30.41 1030 10 16 0.00 0.00
7:53 am 07:53 Sunny 20 -6.7 11 -11.7 68 68 Calm 30.42 1030 10 16 0.00 0.00
8:53 am 08:53 Sunny 25 -3.9 11 -11.7 55 55 Calm 30.43 1031 10 16 0.00 0.00
9:53 am 09:53 Sunny 30 -1.1 13 -10.6 49 49 Calm 30.44 1031 10 16 0.00 0.00
10:53 am 10:53 Sunny 34 1.1 13 -10.6 42 42 VRB 3 6 30.43 1031 10 16 0.00 0.00
11:53 am 11:53 Sunny 39 3.9 12 -11.1 33 33 NNE 3 6 30.42 1030 10 16 0.00 0.00
12:53 pm 12:53 Sunny 44 6.7 14 -10 30 30 VRB 3 6 30.40 1029 10 16 0.00 0.00
1:53 pm 13:53 Sunny 46 7.8 11 -11.7 24 24 VRB 6 9 30.35 1028 10 16 0.00 0.00
2:53 pm 14:53 Sunny 50 10 11 -11.7 21 21 Calm 30.32 1027 10 16 0.00 0.00
3:53 pm 15:53 Sunny 51 10.6 10 -12.2 19 19 Calm 30.32 1027 10 16 0.00 0.00
4:53 pm 16:53 Sunny 51 10.6 11 -11.7 20 20 Calm 30.31 1026 10 16 0.00 0.00
5:53 pm 17:53 Sunny 41 5 23 -5 49 49 Calm 30.31 1027 10 16 0.00 0.00
6:53 pm 18:53 Clear 37 2.8 19 -7.2 48 48 Calm 30.33 1027 10 16 0.00 0.00
7:53 pm 19:53 Clear 33 0.6 19 -7.2 56 56 Calm 30.33 1027 10 16 0.00 0.00
8:53 pm 20:53 Hazy 30 -1.1 19 -7.2 64 64 Calm 30.33 1027 5 8 0.00 0.00
9:53 pm 21:53 Clear 29 -1.7 19 -7.2 66 66 Calm 30.32 1027 10 16 0.00 0.00
10:53 pm 22:53 Clear 26 -3.3 19 -7.2 75 75 Calm 30.31 1026 10 16 0.00 0.00
11:53 pm 23:53 Clear 25 -3.9 18 -7.8 75 75 Calm 30.29 1026 10 16 0.00 0.00

Powered by AerisWeather